DW4277 Weather Reports


time (UTC)temp
F
wind
direction
speed
knots
gust
knots
rain 1hr
in
rain 24hr
in
rain mn
in
humidity
%
barometer
mb
20260904234502 70 230 0.0 0.0 0.00 0.00 0.00 68 1011.3
20260904233107 70 230 0.0 0.0 0.00 0.00 0.00 66 1011.2
20260904231559 71 230 0.0 0.0 0.00 0.00 0.00 67 1011.1
20260904224556 71 230 0.0 0.0 0.00 0.00 0.00 66 1010.9
20260904223057 71 230 0.0 0.0 0.00 0.00 0.00 66 1010.8
20260904221551 72 230 0.0 0.0 0.00 0.00 0.00 66 1010.9
20260904220108 72 230 0.0 0.0 0.00 0.00 0.00 63 1010.9
20260904214548 73 230 0.0 0.0 0.00 0.00 0.00 64 1010.8
20260904213047 73 230 0.0 0.0 0.00 0.00 0.00 61 1010.7
20260904211602 73 230 0.0 0.0 0.00 0.00 0.00 62 1010.6
20260904210049 74 230 0.0 0.0 0.00 0.00 0.00 59 1010.7
20260904204545 75 230 0.0 0.0 0.00 0.00 0.00 61 1010.5
20260904203051 75 230 0.0 0.0 0.00 0.00 0.00 57 1010.5
20260904201544 76 230 0.0 0.0 0.00 0.00 0.00 58 1010.6
20260904200046 77 230 0.0 0.0 0.00 0.00 0.00 56 1010.6
20260904194547 79 230 0.0 0.0 0.00 0.00 0.00 54 1010.6
20260904193044 80 230 0.0 0.0 0.00 0.00 0.00 54 1010.6
20260904191548 81 230 0.0 0.0 0.00 0.00 0.00 51 1010.6
20260904190047 81 230 0.0 8.7 0.00 0.00 0.00 50 1010.5
20260904184551 82 230 4.3 10.4 0.00 0.00 0.00 48 1010.4
20260904183045 83 230 4.3 11.3 0.00 0.00 0.00 47 1010.3
20260904181540 83 230 7.0 15.6 0.00 0.00 0.00 46 1010.2
20260904180048 84 208 0.9 7.8 0.00 0.00 0.00 45 1010.3
20260904174541 85 208 0.0 5.2 0.00 0.00 0.00 43 1010.3
20260904173043 87 208 0.0 6.1 0.00 0.00 0.00 42 1010.4
20260904171540 88 208 0.0 0.9 0.00 0.00 0.00 40 1010.5
20260904170044 89 208 0.0 0.9 0.00 0.00 0.00 39 1010.7
20260904164535 89 208 0.0 8.7 0.00 0.00 0.00 38 1010.8
20260904163032 89 208 0.0 10.4 0.00 0.00 0.00 37 1010.9
20260904161533 90 188 4.3 13.0 0.00 0.00 0.00 37 1011.1
20260904160029 90 244 5.2 13.9 0.00 0.00 0.00 36 1011.3
20260904154529 90 217 5.2 13.0 0.00 0.00 0.00 37 1011.5
20260904153026 89 207 3.5 14.8 0.00 0.00 0.00 37 1011.6
20260904151525 90 230 0.0 9.6 0.00 0.00 0.00 36 1011.8
20260904150033 91 303 2.6 14.8 0.00 0.00 0.00 34 1011.9
20260904144521 90 325 1.7 13.0 0.00 0.00 0.00 35 1012.0
20260904143019 90 354 5.2 16.5 0.00 0.00 0.00 35 1012.3
20260904141526 91 329 0.0 23.5 0.00 0.00 0.00 35 1012.6
20260904140030 90 328 7.8 23.5 0.00 0.00 0.00 37 1012.8
20260904134509 89 350 16.5 31.3 0.00 0.00 0.00 38 1013.0
20260904133009 88 348 10.4 22.6 0.00 0.00 0.00 38 1013.2
20260904131503 88 324 17.4 30.4 0.00 0.00 0.00 39 1013.5
20260904130100 87 319 13.0 29.5 0.00 0.00 0.00 39 1013.7
20260904124605 86 316 15.6 33.9 0.00 0.00 0.00 40 1014.0
20260904123054 86 288 10.4 33.9 0.00 0.00 0.00 40 1014.2
20260904121550 86 346 21.7 37.4 0.00 0.00 0.00 41 1014.5
20260904120054 86 323 19.1 34.8 0.00 0.00 0.00 41 1014.7
20260904114547 84 337 24.3 42.6 0.00 0.00 0.00 42 1014.9
20260904113046 85 304 12.2 33.0 0.00 0.00 0.00 42 1015.1
20260904111542 85 321 20.9 39.1 0.00 0.00 0.00 42 1015.5
20260904110043 84 309 11.3 33.0 0.00 0.00 0.00 44 1015.8
20260904104536 83 308 14.8 29.5 0.00 0.00 0.00 45 1016.0
20260904103036 83 311 17.4 40.8 0.00 0.00 0.00 45 1016.2
20260904101531 83 332 16.5 42.6 0.00 0.00 0.00 45 1016.1
20260904100028 82 350 24.3 40.0 0.00 0.00 0.00 45 1016.2
20260904094537 81 317 23.5 49.5 0.00 0.00 0.00 46 1016.5
20260904093021 81 312 26.1 42.6 0.00 0.00 0.00 47 1016.8
20260904091516 80 338 15.6 40.0 0.00 0.00 0.00 50 1017.0
20260904090013 79 325 16.5 35.6 0.00 0.00 0.00 51 1017.4
20260904084511 79 321 19.1 39.1 0.00 0.00 0.00 52 1017.5
20260904083007 78 302 13.9 27.8 0.00 0.00 0.00 53 1017.6
20260904081506 77 330 12.2 20.9 0.00 0.00 0.00 54 1017.8
20260904080105 76 323 12.2 26.9 0.00 0.00 0.00 55 1017.9
20260904074600 76 342 14.8 23.5 0.00 0.00 0.00 55 1017.9
20260904073104 75 310 8.7 28.7 0.00 0.00 0.00 57 1017.9
20260904071553 75 330 7.8 27.8 0.00 0.00 0.00 58 1017.8
20260904070052 75 331 11.3 31.3 0.00 0.00 0.00 57 1017.9
20260904064601 75 313 11.3 20.0 0.00 0.00 0.00 57 1017.8
20260904063106 74 341 7.8 23.5 0.00 0.00 0.00 58 1017.8
20260904061547 74 327 13.9 26.9 0.00 0.00 0.00 58 1017.7
20260904054549 72 327 5.2 15.6 0.00 0.00 0.00 61 1017.6
20260904053041 72 338 0.0 14.8 0.00 0.00 0.00 61 1017.7
20260904051541 71 340 0.0 0.0 0.00 0.00 0.00 61 1017.6
20260904050043 71 340 0.0 0.0 0.00 0.00 0.00 61 1017.5
20260904044532 71 340 0.0 0.0 0.00 0.00 0.00 60 1017.5
20260904043030 71 340 0.0 0.0 0.00 0.00 0.00 60 1017.6
20260904041528 72 340 0.0 0.0 0.00 0.00 0.00 59 1017.6
20260904040039 72 340 5.2 12.2 0.00 0.00 0.00 58 1017.5
20260904034528 72 340 7.8 20.0 0.00 0.00 0.00 58 1017.5
20260904033026 72 329 8.7 15.6 0.00 0.00 0.00 59 1017.5
20260904031526 72 328 7.8 15.6 0.00 0.00 0.00 59 1017.5
20260904030025 72 331 7.8 19.1 0.00 0.00 0.00 60 1017.4
20260904024524 72 334 9.6 15.6 0.00 0.00 0.00 60 1017.6
20260904023023 71 332 10.4 19.1 0.00 0.00 0.00 61 1017.4
20260904021538 71 321 10.4 18.2 0.00 0.00 0.00 61 1017.4
20260904020020 71 323 10.4 16.5 0.00 0.00 0.00 62 1017.6
20260904014518 71 320 6.1 15.6 0.00 0.00 0.00 63 1017.6
20260904013016 70 329 7.0 13.9 0.00 0.00 0.00 63 1017.6
20260904011516 70 328 7.8 15.6 0.00 0.00 0.00 64 1017.8
20260904010014 70 315 11.3 19.1 0.00 0.00 0.00 64 1017.8
20260904004516 70 335 2.6 11.3 0.00 0.00 0.00 64 1018.0
20260904003021 70 335 4.3 16.5 0.00 0.00 0.00 63 1018.0
20260904001510 70 336 3.5 14.8 0.00 0.00 0.00 63 1018.2
20260904000010 70 336 0.9 13.0 0.00 0.00 0.00 64 1018.2